Theta_e
294 294 294 293 293 293 292 292 291 291 290 289 289 289 289 289 289 288 288 288 289 289 289 289 289 289 289 288 288 287 287 286 286 286 286 285 285 284 283 283 282 281
295 294 294 294 293 293 293 292 291 290 290 290 289 289 289 288 288 287 287 287 287 288 288 288 288 288 288 288 287 287 286 286 286 285 285 284 283 283 282 282 281 280
295 294 294 294 294 293 293 292 291 290 290 289 289 289 288 288 288 287 287 286 286 286 287 287 287 287 287 286 286 286 286 285 285 285 284 283 283 282 281 280 280 279
294 294 294 294 293 293 293 292 291 290 290 289 289 289 288 288 287 287 286 286 286 285 285 285 286 286 286 285 285 285 284 284 284 284 283 282 282 281 281 280 278 278
294 294 293 293 293 293 292 291 291 291 290 290 289 288 288 288 287 287 286 286 285 285 285 284 284 284 285 284 284 283 283 283 283 282 282 281 281 281 280 279 278 277
294 294 293 293 293 292 292 291 291 291 290 290 289 288 288 287 287 287 286 286 285 285 284 283 283 283 283 283 282 282 282 282 282 281 281 281 281 281 280 278 277 276
294 293 293 293 292 292 291 291 291 290 290 290 289 288 288 287 287 287 286 286 285 285 284 283 283 283 283 282 282 281 281 281 281 281 281 281 281 280 279 278 277 276
293 293 293 292 292 291 291 291 291 290 290 289 289 288 288 287 287 287 286 286 285 285 284 283 283 283 282 282 281 281 281 280 280 280 280 280 280 280 279 277 276 275
293 293 292 292 292 291 291 291 290 290 289 289 288 288 288 287 287 286 286 286 285 285 284 283 282 282 282 281 281 281 280 280 280 280 280 280 280 279 278 277 276 275
292 292 292 292 292 291 291 291 290 290 289 289 289 288 287 287 286 286 286 285 285 284 284 283 282 282 281 281 280 280 280 280 280 280 280 280 280 279 278 276 275 274
292 292 292 292 292 291 291 291 290 290 289 289 288 288 287 287 286 286 286 285 285 284 284 283 282 282 281 281 280 280 279 280 280 280 280 280 279 278 277 276 275 274
292 292 292 292 291 291 291 290 290 290 289 289 288 288 287 287 286 286 286 285 285 284 283 283 282 282 281 280 280 280 279 279 279 279 279 279 278 277 276 275 274 274
291 291 291 291 291 291 291 290 290 289 289 288 288 287 287 287 286 286 285 285 284 283 283 282 282 281 281 280 280 279 279 279 279 279 278 278 277 277 276 274 274 273
291 291 291 291 291 290 290 290 289 289 288 288 287 287 287 286 286 285 285 284 284 283 282 282 281 281 280 280 279 279 279 279 278 278 278 277 277 276 275 274 273 272
290 290 290 290 290 290 290 289 289 288 288 287 287 286 286 285 285 285 284 284 283 282 282 281 281 280 280 279 279 279 278 278 278 277 277 277 277 276 275 274 273 272
289 289 289 289 289 289 289 288 288 287 287 287 286 286 285 285 284 284 283 283 283 282 282 281 280 280 279 279 279 278 278 278 277 277 277 277 276 275 274 273 272 271
288 288 288 288 288 287 287 287 287 286 286 286 285 285 285 284 284 283 283 283 282 282 281 281 280 280 279 278 278 277 277 277 277 277 277 276 275 274 273 272 271 271
287 287 287 287 287 286 286 286 286 286 285 285 285 285 285 284 284 284 283 283 282 281 281 280 279 279 278 278 277 277 276 276 276 276 276 275 274 273 272 271 271 270
287 287 287 287 287 286 286 286 285 285 285 285 285 284 284 284 283 283 282 282 281 280 280 279 279 278 278 277 276 276 276 276 276 276 275 274 273 272 271 270 270 270
287 287 287 287 286 286 285 285 285 285 284 284 284 284 283 283 282 282 281 281 280 280 279 278 278 278 277 276 276 275 275 275 275 275 274 273 272 271 271 270 270 269
287 286 286 285 285 285 284 284 284 284 284 283 283 283 282 282 281 280 280 280 279 279 278 277 277 277 276 276 275 275 275 274 274 273 273 272 271 271 270 270 270 270
285 285 284 284 284 284 284 284 283 283 283 282 282 281 281 280 280 279 279 279 278 278 277 277 276 276 275 275 275 275 274 274 273 272 272 271 271 270 270 269 269 269
284 283 283 283 283 283 283 282 282 281 281 281 281 280 280 280 279 279 278 278 277 277 276 276 276 275 275 275 275 274 273 273 272 272 271 271 271 270 269 269 268 268
283 283 283 282 282 282 281 281 280 280 280 280 280 279 279 279 278 278 277 277 276 276 276 275 275 275 275 274 274 273 272 271 271 271 270 270 270 269 269 269 268 268
282 282 282 281 281 280 280 280 279 279 279 279 278 278 278 277 277 276 276 276 275 275 275 274 274 274 274 273 272 271 271 270 270 270 270 269 269 269 269 268 268 268
281 281 280 280 279 279 279 279 278 278 278 278 277 277 276 276 276 275 275 274 274 274 274 273 273 273 272 272 271 271 270 270 270 269 269 269 268 268 268 268 268 268
Wind_Speed
49 50 52 54 56 57 57 57 57 56 56 56 57 58 58 58 57 56 56 55 55 54 53 52 51 51 50 49 48 47 45 44 42 40 38 36 34 32 30 29 27 25
44 46 49 51 53 55 56 57 57 56 56 56 57 57 56 56 56 56 55 55 55 55 54 53 53 52 51 50 50 49 47 46 44 42 40 38 35 33 30 28 26 25
42 43 46 48 50 51 53 55 55 56 56 56 56 56 56 56 56 55 55 55 55 54 54 54 54 53 52 51 50 50 49 48 46 44 41 39 36 33 30 28 27 26
41 42 44 45 47 48 50 52 54 55 55 55 55 55 55 55 54 54 54 54 54 54 54 54 54 53 52 51 51 50 49 48 47 44 41 39 36 33 31 29 28 27
39 41 42 44 45 46 48 50 52 53 54 54 54 54 53 53 53 53 53 53 53 53 53 53 53 52 52 52 51 50 50 48 47 44 42 39 37 34 32 30 29 28
38 40 41 42 43 44 46 48 49 50 52 53 53 53 52 52 52 52 53 53 52 52 52 52 52 52 52 52 51 51 50 49 48 45 43 41 39 36 33 31 30 29
38 39 40 41 42 43 45 46 46 47 49 50 50 51 50 51 51 51 52 52 51 51 52 52 52 52 52 52 51 51 50 49 48 46 44 43 39 36 34 32 30 29
37 38 39 40 41 42 43 44 45 45 46 46 47 48 48 49 50 51 51 51 51 52 51 52 52 52 52 52 52 51 50 49 48 46 45 42 39 37 34 32 31 30
36 37 38 39 40 41 42 42 43 43 43 44 45 46 46 47 48 49 50 51 51 52 51 51 52 51 52 52 52 51 50 49 49 47 45 43 40 37 34 31 31 31
34 35 36 38 39 40 41 41 40 40 41 41 42 43 44 45 46 47 49 50 51 51 51 51 52 52 51 52 51 51 50 50 49 47 45 43 40 36 33 31 31 31
33 34 35 37 38 39 39 39 39 38 39 39 39 40 41 43 45 46 47 49 50 51 51 51 51 51 51 51 51 50 50 49 48 47 45 42 39 35 32 31 32 32
32 33 34 35 36 37 37 37 37 37 37 37 37 38 39 41 43 44 46 47 48 49 49 50 50 50 50 50 50 50 49 48 47 46 44 41 37 34 32 32 32 32
32 32 33 34 34 35 35 35 35 36 36 36 36 36 37 39 40 42 44 45 46 47 48 48 49 49 49 49 49 49 48 47 47 45 42 39 35 33 32 32 32 32
31 31 31 32 32 32 33 33 34 35 35 34 34 34 35 37 38 39 41 42 43 44 45 46 47 48 48 48 48 48 47 47 46 44 41 37 35 33 33 33 33 33
29 29 29 30 30 31 32 32 33 33 33 33 33 33 33 34 35 37 38 39 40 42 43 44 45 46 46 47 47 47 47 46 45 43 39 36 34 33 33 33 34 34
27 27 28 28 28 29 30 30 30 30 30 31 31 31 31 32 33 34 36 37 38 39 40 41 43 44 44 45 45 45 45 45 43 40 36 34 33 33 33 34 34 34
27 26 26 26 26 27 27 27 27 27 27 28 28 28 29 29 31 32 33 34 35 37 38 39 40 41 41 42 42 43 43 42 40 37 34 33 33 33 34 34 34 34
24 23 23 23 23 23 23 23 24 24 24 25 25 25 26 27 28 29 31 32 33 34 36 37 38 38 39 39 39 40 40 39 36 34 33 33 33 34 34 34 35 35
20 21 21 21 21 20 20 21 21 21 21 21 21 22 23 25 26 28 30 31 32 33 34 35 36 36 36 36 37 36 36 35 34 33 32 33 33 34 34 35 35 35
20 21 21 20 20 19 19 19 19 19 19 20 21 22 24 25 26 27 28 29 30 31 32 33 34 34 33 33 34 33 31 31 31 32 32 32 33 34 34 35 34 34
21 20 20 19 19 18 19 19 19 20 21 21 22 23 24 25 25 26 27 27 28 29 30 32 32 31 30 30 30 29 28 27 29 31 32 33 33 33 33 34 34 34
20 19 19 19 19 20 20 21 21 22 22 23 23 23 24 24 24 25 26 26 26 27 28 29 28 27 27 27 27 27 26 26 28 31 33 33 34 33 33 34 34 35
19 19 20 21 21 22 22 22 22 22 22 22 23 23 24 24 24 24 24 24 25 25 25 25 24 23 23 25 26 27 27 28 30 32 33 35 35 35 35 35 35 35
21 21 22 23 23 23 22 22 22 22 22 22 22 23 23 22 22 22 22 21 21 20 20 20 21 21 22 24 27 27 27 29 31 32 34 36 37 38 38 38 38 37
23 23 23 23 23 22 22 22 21 21 21 21 21 21 21 20 19 18 18 17 17 17 18 20 22 23 24 26 27 27 27 28 30 32 34 36 37 38 39 39 39 38
25 24 23 22 22 21 21 21 21 21 20 19 19 18 18 17 16 16 16 16 17 19 21 23 25 26 26 26 27 27 27 28 30 32 34 36 37 37 38 38 38 38
Wind_Direction
262 260 259 258 257 256 254 252 251 248 246 246 248 250 252 254 255 254 254 254 254 253 253 252 252 251 250 249 249 248 248 248 249 250 250 250 251 251 251 253 256 259
265 263 262 261 259 258 257 255 253 249 247 247 248 249 250 251 253 253 253 253 253 253 253 252 251 250 249 248 247 246 246 246 246 247 248 247 247 247 248 250 252 255
267 266 264 263 263 262 261 258 255 251 249 248 248 248 248 249 250 251 252 252 252 252 252 251 250 250 248 247 246 245 245 245 245 245 246 246 246 247 248 249 250 252
270 269 267 267 267 266 263 259 256 254 252 249 248 247 247 248 249 250 250 251 251 251 251 249 248 248 247 245 244 243 242 242 243 243 243 244 245 246 247 248 249 250
274 272 270 269 269 267 264 260 258 257 254 252 249 247 246 247 247 248 249 249 250 249 248 247 246 245 245 244 242 241 240 239 239 239 240 241 242 244 246 246 247 249
277 275 273 271 270 268 264 262 261 259 256 254 251 247 246 246 247 248 248 248 248 248 246 245 244 243 243 242 240 239 238 237 237 237 238 240 242 244 244 244 246 248
279 278 276 273 271 268 266 265 264 261 259 256 252 248 246 245 246 247 248 248 248 247 246 244 243 242 241 240 238 238 237 236 236 236 238 240 241 242 242 242 244 246
281 279 276 273 271 268 267 267 265 263 261 257 253 250 247 245 245 245 246 247 247 247 246 244 243 243 241 240 238 237 236 235 235 235 237 239 240 240 241 242 243 244
281 278 276 273 271 269 269 268 267 264 261 257 254 253 249 246 245 244 245 246 246 246 245 243 243 242 241 240 239 237 236 235 235 236 238 240 240 240 241 242 243 244
282 279 276 273 272 271 270 269 267 265 261 258 256 254 250 247 245 244 244 245 245 245 244 243 243 242 240 240 239 238 237 236 237 239 240 241 241 241 240 241 243 245
284 281 277 274 273 272 271 270 268 265 262 260 257 254 251 248 246 245 245 245 246 246 245 244 244 243 242 240 239 239 238 239 240 241 241 241 241 241 241 241 243 246
286 283 280 277 274 272 270 268 266 264 262 260 258 255 252 249 248 247 247 247 247 247 246 245 245 244 243 242 241 240 240 240 241 241 240 240 240 241 242 242 244 247
289 285 281 277 273 270 268 266 265 263 262 260 259 257 254 252 250 249 248 248 248 247 246 246 246 245 244 243 242 241 241 241 241 240 239 238 239 241 243 244 246 247
290 285 279 274 270 267 264 263 262 262 262 261 260 258 256 254 253 252 250 250 249 248 248 247 246 246 245 243 242 241 242 241 240 238 237 237 240 243 245 246 247 247
289 281 275 270 266 263 261 261 261 261 262 262 261 259 257 256 255 254 252 251 250 249 249 248 247 246 246 245 243 241 241 240 238 237 237 239 242 245 247 248 248 248
284 278 273 268 265 263 262 262 263 263 263 263 263 262 259 257 255 254 253 253 252 251 250 248 247 247 245 244 243 241 240 238 237 236 238 242 246 248 248 249 249 250
283 279 275 272 269 267 266 266 266 265 265 265 265 263 261 259 257 256 255 255 254 253 251 249 248 247 244 242 240 239 238 237 237 238 242 246 250 251 251 251 252 253
286 283 280 278 276 274 273 271 271 270 268 267 266 266 264 262 261 260 259 258 255 253 252 250 248 247 244 240 237 236 237 237 238 241 247 250 252 253 253 253 253 254
294 292 290 289 286 284 281 278 276 274 273 272 272 271 268 266 265 263 261 258 256 254 253 250 248 246 243 238 235 234 236 239 243 247 251 254 255 255 254 253 253 254
300 298 297 294 292 289 285 283 282 282 281 280 278 274 271 269 267 264 262 260 257 256 253 250 248 245 242 238 235 234 235 240 249 255 256 257 257 256 254 253 253 254
301 299 297 294 292 291 289 290 290 289 287 284 281 278 275 273 269 266 264 261 258 255 251 249 248 246 243 238 235 236 237 239 246 254 258 258 258 257 256 257 258 258
302 299 297 295 294 294 294 294 292 290 288 285 283 281 277 274 271 267 264 260 257 254 250 248 247 245 241 237 236 240 243 242 242 247 252 254 255 256 258 260 262 262
301 299 298 297 297 296 296 294 293 291 289 287 284 282 278 275 272 268 264 260 255 251 248 247 245 241 238 240 244 248 249 246 245 245 245 247 249 251 253 256 258 260
300 299 299 298 297 297 295 294 293 291 289 287 284 281 278 274 271 267 262 258 253 249 247 245 244 244 245 249 253 254 252 250 250 249 246 245 246 248 251 253 254 256
299 299 299 298 297 296 296 295 294 292 290 288 283 278 275 271 267 262 258 254 250 248 248 250 252 254 256 258 259 258 254 252 251 251 249 249 250 252 253 255 256 257
301 300 299 298 296 296 296 296 295 294 292 289 282 276 271 267 262 258 257 256 256 256 258 261 263 265 265 265 264 261 257 252 249 249 250 251 253 255 256 257 258 259